Regional Weather Roundup
Issued by NWS State College, PA

Home | Current Version | Previous Version | Text Only | Print | Product List | Glossary On
Versions: 1 2 3 4 5 6 7 8 9 10 11 12 13 14 15 16 17 18 19 20 21 22 23 24 25 26 27 28 29 30 31 32 33 34 35 36 37 38 39 40 41 42 43 44 45 46 47 48 49 50
000
ASUS41 KCTP 221703
RWRCTP

REGIONAL WEATHER ROUNDUP
NATIONAL WEATHER SERVICE STATE COLLEGE PA
100 PM EDT TUE JUL 22 2014

Note: "fair" indicates few or no clouds below 12,000 feet with no
significant weather and/or obstructions to visibility.

* = STATION THAT DOES NOT REPORT PRECIPITATION /E.G. RAIN...SNOW...ETC/
    THUNDER OR FOG.

PAZ002>004-007>009-013>016-020>023-029>032-221800-
WESTERN PENNSYLVANIA

CITY           SKY/WX    TMP DP  RH WIND       PRES   REMARKS
ERIE           SUNNY     82  69  64 VRB6      30.09F
MEADVILLE      NOT AVBL
FRANKLIN*      PTSUNNY   82  66  57 SW7       30.15F
NEW CASTLE       N/A     84  70  63 CALM      30.11F
BEAVER COUNTY  MOSUNNY   84  68  58 CALM      30.13F
BUTLER*        MOSUNNY   82  68  61 S3        30.14F
PITTSBURGH INT MOSUNNY   85  67  54 SW7       30.12F
PITTSBURGH     CLOUDY    82  68  62 CALM      30.12F
INDIANA*       PTSUNNY   82  68  61 CALM      30.18F
LATROBE        PTSUNNY   82  72  69 SW7       30.15F
WASHINGTON CO* PTSUNNY   84  72  65 SW3       30.14F
$$

PAZ004>006-010>012-017>019-024>028-033>037-041-042-045-046-049>053-221800-
CENTRAL PENNSYLVANIA

CITY           SKY/WX    TMP DP  RH WIND       PRES   REMARKS
BRADFORD       PTSUNNY   80  65  59 S10       30.16F
DUBOIS         MOSUNNY   82  68  62 W6        30.16S
CLEARFIELD     MOSUNNY   83  67  58 S6        30.15F
JOHNSTOWN      PTSUNNY   80  65  59 VRB5      30.19F
ALTOONA        MOSUNNY   80  69  69 S7        30.18F
STATE COLLEGE  MOSUNNY   79  70  73 CALM      30.15F
WILLIAMSPORT   CLOUDY    79  68  69 SE3       30.13F
SELINSGROVE    CLOUDY    79  69  71 VRB5      30.15F
FT INDIANTOWN  PTSUNNY   81  72  75 W5        30.16F
CAPITAL CITY   PTSUNNY   82  69  64 W6        30.15F
HARRISBURG     PTSUNNY   85  71  63 SW10      30.14F
YORK           PTSUNNY   81  70  69 S9        30.16F
$$

PAZ038>040-043-044-047-048-054-055-060>062-067>071-221800-
EASTERN PENNSYLVANIA

CITY           SKY/WX    TMP DP  RH WIND       PRES   REMARKS
SCRANTON       MOSUNNY   83  67  58 SW10      30.16S
MOUNT POCONO   PTSUNNY   79  65  62 SW5       30.20F
ALLENTOWN      PTSUNNY   81  70  69 W9        30.15F
QUAKERTOWN*    PTSUNNY   82  68  61 SW8       30.17F
READING        PTSUNNY   84  70  62 SW6       30.14F
LANCASTER      CLOUDY    80  69  69 W5        30.15F
COATESVILLE    MOSUNNY   81  70  69 CALM      30.18F
POTTSTOWN      CLOUDY    82  67  60 SW8       30.17F
BLUE BELL      PTSUNNY   84  68  58 SW6       30.14F
DOYLESTOWN     PTSUNNY   84  69  60 VRB6      30.15F
WILLOW GROVE   NOT AVBL
NORTH PHILA    PTSUNNY   86  65  49 SW8       30.16F
PHILADELPHIA   MOSUNNY   84  63  49 SW8       30.15F
$$


USA.gov is the U.S. government's official web portal to all federal, state and local government web resources and services.